HORIS-2

operational
NORAD ID: 64554 Int'l Des: NNA 2025-135 Owner: ACMEO Country: US
LEOCIRCULARRETROGRADESSO

Über HORIS-2

Beschreibung wird geladen...

Live-Position

3D-Globus wird geladen...

Nächste Überflüge

Höhenverlauf

Altitude vs Time

uPlot chart will show altitude changes over time

Zweizeiliger Elementsatz

1 64554U 25135AC 25340.89343288 .00021984 00000-0 93688-3 0 9990
2 64554 97.4528 93.2792 0000381 204.0032 156.1187 15.22966719 25662
Epoch: 6. Dez. 2025 • Age: 12 hours

Aktueller Status

Höhe 519.9 km
Geschwindigkeit 7.60 km/s
Subsatellitenpunkt -59.49°S, 116.78°W
Startdatum 23. Juni 2025
Alter 0.4 years
Typ other

Technische Details

Klassifizierung Payload
Masse 1.00 kg
Trockenmasse 1.00 kg
Gesamtmasse 1.00 kg
Länge 0.10 m
Durchmesser 0.10 m
Spannweite 0.10 m
Form Box
Hersteller ACMEO
Bus-Typ Cubesat 1U
Phasenstatus In Orbit
Besitzer/Staat ACMEO/US

Große Konstellationen

Loading constellations...